Torna al catalogo

STARLINK-32881

AttivoComunicazioniVLEO
NORAD 62997·PAYLOAD·🇺🇸 United States

Lanciato Feb 11, 2025 da Cape Canaveral Space Force Station

Loading…

Prossimi Passaggi (prossime 24 ore)

TLE

AggiornatoSource: CelesTrak SupGP

Epoca: Sep 14, 2026, 20:38 UTC

1 62997C 25031S   26257.86020833 -.00018909  00000+0 -68494-3 0  2575
2 62997  43.0013 154.8096 0001520 263.5139 275.4523 15.27585709    14

Traccia STARLINK-32881 in tempo reale con AllMySat

Download on the App Store